Wind_Speed
43 43 43 44 44 45 45 45 45 45 45 45 44 44 44 45 45 45 45 45 46 46 47 47 47 47 47 47 47 46 46 46 45 45 45 45 45 45 45 45 45 44 44
43 44 44 44 45 45 45 45 45 46 46 47 46 46 45 45 45 45 45 45 46 47 47 47 47 48 48 48 48 47 47 47 47 47 47 46 46 46 46 46 46 46 46
43 43 43 44 44 44 44 45 45 45 46 46 46 46 46 45 45 45 45 46 46 47 48 48 48 48 48 48 48 49 48 48 49 49 48 48 48 48 48 48 47 47 47
43 43 43 43 43 44 45 45 45 45 45 45 45 45 46 46 45 45 46 46 46 47 47 48 48 49 49 49 49 49 49 49 49 49 50 50 49 49 48 48 48 48 48
43 43 43 43 43 43 44 45 45 46 46 46 46 46 47 47 47 47 47 47 47 47 47 48 48 49 49 49 49 50 50 50 51 50 50 50 50 50 50 50 50 50 49
42 43 44 44 44 44 44 45 46 46 47 47 47 47 48 48 48 48 49 49 49 49 48 48 49 49 49 50 50 51 52 52 52 52 51 51 51 52 52 51 52 52 51
42 43 44 45 45 45 46 46 47 47 47 48 48 48 48 49 50 50 50 51 51 51 51 51 50 51 51 51 52 52 53 52 52 53 53 53 53 53 53 53 53 54 53
42 43 43 44 45 46 46 47 47 48 48 49 49 50 49 50 50 51 51 52 52 52 52 52 52 53 53 53 53 53 53 53 52 52 53 54 54 54 54 54 55 55 55
41 42 42 43 44 45 46 47 47 48 49 50 50 50 51 51 51 51 52 52 53 53 53 54 54 54 54 54 54 54 54 54 53 53 53 54 54 54 54 55 55 56 56
41 41 42 43 44 45 46 46 47 48 49 50 51 51 51 51 51 52 52 53 53 54 54 54 54 55 55 54 54 54 54 54 55 55 55 55 55 55 56 56 56 57 57
39 40 41 42 42 43 45 46 46 47 48 49 50 51 52 53 52 52 53 53 53 54 55 55 55 55 55 55 55 55 55 55 55 55 56 56 56 56 57 57 57 57 58
39 39 39 40 41 42 43 44 45 45 46 48 49 50 51 52 53 53 53 53 53 53 53 54 54 55 55 55 55 55 56 56 56 56 56 57 57 57 58 58 57 57 58
38 39 40 40 41 42 42 43 44 45 46 46 47 48 49 50 51 53 53 53 53 53 52 52 54 55 55 55 55 56 57 57 57 57 57 58 58 58 58 58 58 59 59
38 39 40 41 41 41 41 42 42 43 44 45 46 47 49 49 50 51 52 53 53 54 54 53 53 54 55 55 55 56 56 57 57 57 57 58 58 58 59 59 59 59 59
39 39 39 39 40 40 40 40 40 41 41 43 44 46 47 48 48 49 50 51 52 53 54 55 54 55 55 55 55 55 56 56 56 56 57 57 57 58 58 59 59 59 59
38 38 38 38 38 38 38 39 39 39 39 40 42 43 45 45 46 46 48 49 50 51 52 52 53 53 53 53 53 54 55 55 55 55 55 56 57 56 56 56 57 58 58
37 37 37 37 37 37 37 37 37 38 38 38 39 40 42 43 44 44 45 46 47 48 49 50 50 50 51 52 53 54 54 54 54 54 54 55 55 55 55 55 56 56 57
36 36 36 36 36 36 36 36 36 37 37 38 38 39 40 41 42 43 44 45 45 46 48 49 50 50 50 50 51 52 53 53 53 53 54 54 54 54 54 55 55 55 55
36 36 36 36 36 36 37 37 37 37 37 37 37 38 39 40 41 42 43 44 44 45 45 46 47 47 48 50 50 50 51 51 51 52 52 53 53 54 54 54 53 53 54
35 35 35 36 36 36 36 36 35 36 36 37 37 37 38 39 39 40 41 42 43 44 44 44 45 45 46 47 48 49 49 49 50 50 50 51 51 52 53 53 53 54 54
35 35 34 34 35 35 34 34 33 34 34 35 35 36 37 38 39 39 40 41 42 42 43 43 43 44 44 44 46 47 48 48 48 49 49 49 50 51 51 52 53 53 54
34 34 34 33 33 33 33 33 33 33 34 34 35 35 36 37 37 38 38 39 40 40 41 41 42 42 43 43 44 45 46 47 47 47 47 48 49 50 50 50 51 51 52
33 33 33 33 32 33 33 33 33 33 34 35 36 36 36 36 36 37 37 37 38 38 38 39 40 40 41 42 43 43 44 46 46 47 47 47 48 49 50 50 50 51 51
33 32 31 31 31 31 32 32 32 33 34 34 35 36 36 36 36 36 36 36 37 37 37 37 37 38 39 40 42 42 43 44 45 46 46 47 47 48 48 49 50 51 51
30 30 30 31 31 31 31 31 31 32 33 34 35 35 36 35 35 35 35 36 36 36 36 36 36 36 36 37 38 39 40 41 42 43 44 45 46 46 47 47 48 49 50
29 29 29 29 30 30 31 31 31 31 32 33 33 34 34 34 35 34 34 34 35 35 35 34 34 34 34 34 35 36 37 38 38 40 41 42 43 44 45 45 46 47 48
Wind_Direction
265 264 263 262 262 262 262 263 262 262 263 263 263 264 264 264 263 263 262 260 259 258 258 258 258 258 258 258 258 257 256 256 255 254 253 253 253 252 251 251 251 250 250
265 264 263 264 264 263 263 263 263 263 263 263 263 264 264 264 264 262 261 260 259 259 258 258 258 258 258 258 258 257 256 255 255 255 254 254 252 252 252 252 251 251 250
266 265 264 264 264 263 263 263 264 264 263 263 263 263 263 263 262 261 261 261 260 260 260 259 258 259 259 258 257 257 256 256 255 255 255 254 253 252 252 251 251 251 249
266 265 265 264 264 264 264 264 264 264 264 263 263 263 263 263 262 262 261 261 261 261 260 260 259 259 259 259 257 256 255 255 256 255 255 254 254 252 251 250 250 250 250
267 266 265 265 264 264 264 264 264 264 264 264 263 263 262 262 262 262 261 261 261 261 261 260 259 258 259 259 258 256 256 255 255 255 255 255 254 253 252 250 250 250 250
267 267 266 265 264 264 264 264 264 264 264 263 263 263 263 263 263 262 261 261 261 261 261 261 260 259 259 259 258 257 256 256 255 255 255 255 255 254 253 252 250 251 251
268 267 266 265 265 264 264 264 264 264 264 263 263 263 263 263 263 263 262 261 261 261 261 261 261 260 259 259 258 257 257 256 256 255 255 255 255 254 253 252 251 251 251
271 269 267 266 265 265 264 264 264 264 264 263 263 263 263 263 264 263 263 262 262 261 261 261 261 260 260 259 258 257 257 256 256 256 256 255 255 254 254 253 252 251 251
272 270 268 267 266 266 266 265 265 265 264 263 263 263 263 263 264 263 263 262 262 262 262 261 261 260 260 259 258 258 257 256 256 256 256 255 254 254 254 254 254 252 251
275 273 271 269 268 268 267 267 266 266 265 264 263 263 263 263 263 263 263 262 262 262 262 263 262 260 259 259 258 258 257 256 256 257 256 256 256 255 255 254 254 252 251
278 276 274 273 272 271 269 268 268 267 267 265 264 263 262 262 262 262 261 262 262 263 263 263 262 261 259 258 258 257 257 256 256 257 257 257 256 256 255 254 254 253 251
278 277 277 276 274 273 272 271 269 269 268 267 266 264 264 263 263 262 262 262 263 264 264 263 262 261 259 258 258 257 257 256 256 256 256 257 256 256 256 255 255 253 252
279 278 278 277 276 276 275 273 271 270 269 268 267 266 265 264 264 263 262 263 263 263 264 263 262 261 259 258 258 258 257 257 257 256 257 257 256 256 255 255 255 255 253
280 279 279 278 277 277 276 275 273 272 270 269 269 268 267 266 265 264 264 264 263 263 263 264 264 262 261 259 258 258 258 258 257 257 256 256 256 256 255 255 255 256 255
280 280 279 278 278 278 278 277 276 275 273 272 270 269 268 267 267 266 266 266 265 264 264 264 264 263 262 260 259 258 258 257 257 257 256 256 256 256 255 255 255 255 254
281 280 280 279 279 278 278 277 277 276 275 275 274 272 270 269 269 268 268 267 266 265 264 265 264 263 262 261 260 258 258 257 257 257 256 256 256 255 255 254 254 254 254
281 281 281 280 279 278 278 277 277 276 276 276 276 275 273 272 271 271 270 269 268 267 266 265 264 263 261 260 260 259 259 258 258 257 257 256 255 254 254 254 254 254 253
283 283 283 282 280 279 279 279 278 277 277 277 277 276 276 275 274 273 272 271 270 268 267 267 265 263 262 261 260 259 259 258 258 257 257 256 255 254 253 254 254 253 252
285 285 284 283 282 280 279 279 279 278 278 277 277 277 277 277 276 275 274 273 272 271 270 268 267 265 263 262 261 259 258 258 258 258 258 257 256 255 254 254 253 253 252
288 287 285 284 283 283 282 280 279 279 279 279 279 279 280 280 279 278 277 276 274 273 272 270 268 266 264 262 261 260 259 259 258 258 258 258 256 255 254 254 253 253 252
289 288 287 285 284 284 283 282 280 280 280 281 281 282 282 282 282 281 279 277 276 274 273 270 268 266 264 262 261 260 259 258 258 258 257 256 256 256 255 254 253 253 253
291 290 289 287 286 285 285 283 281 280 281 281 283 284 284 284 283 283 281 280 278 276 274 271 269 266 264 263 261 260 259 259 258 257 257 256 256 256 255 254 254 253 254
292 292 290 288 287 287 286 285 283 282 283 284 285 285 285 285 284 284 283 281 280 278 276 273 270 268 265 263 262 261 260 260 259 258 257 257 257 256 255 254 253 253 254
294 293 291 290 289 288 287 286 285 284 285 286 287 287 287 286 285 284 284 283 282 281 278 275 272 269 267 264 262 262 261 260 260 259 258 257 257 256 255 254 254 254 254
297 296 294 293 292 290 289 287 287 287 287 288 288 288 288 287 286 285 284 284 283 282 280 277 274 272 269 267 263 262 262 261 260 259 258 257 257 256 255 254 253 253 252
299 299 298 298 296 294 291 290 289 290 291 291 291 291 289 288 287 286 286 285 285 283 281 279 277 274 271 268 265 262 262 261 261 259 258 258 257 255 254 254 253 252 252
Height
5684 5684 5684 5684 5684 5685 5685 5686 5686 5687 5687 5688 5688 5689 5689 5689 5689 5690 5691 5692 5693 5695 5697 5698 5700 5702 5704 5706 5708 5710 5712 5715 5717 5720 5722 5725 5728 5731 5734 5737 5741 5745 5748
5672 5672 5672 5672 5673 5673 5674 5674 5675 5675 5675 5676 5676 5677 5677 5677 5677 5678 5679 5680 5682 5683 5685 5687 5688 5690 5692 5694 5696 5698 5700 5703 5705 5708 5711 5714 5717 5720 5722 5726 5729 5733 5737
5660 5660 5661 5661 5661 5661 5662 5662 5663 5663 5663 5664 5664 5664 5665 5665 5666 5666 5668 5669 5670 5672 5673 5675 5676 5678 5680 5682 5684 5686 5688 5691 5693 5696 5699 5702 5705 5709 5711 5714 5718 5721 5725
5648 5648 5649 5649 5649 5650 5650 5650 5650 5651 5651 5652 5652 5652 5653 5653 5654 5655 5656 5657 5658 5660 5661 5663 5664 5666 5668 5670 5671 5673 5676 5678 5681 5683 5686 5689 5693 5696 5700 5703 5706 5709 5713
5636 5636 5637 5637 5637 5637 5638 5638 5638 5639 5639 5639 5640 5640 5641 5641 5642 5643 5644 5645 5646 5647 5649 5650 5652 5653 5655 5657 5659 5661 5663 5666 5668 5670 5673 5676 5679 5683 5686 5690 5694 5697 5701
5624 5624 5624 5625 5625 5625 5625 5625 5626 5626 5626 5627 5627 5628 5628 5629 5630 5630 5632 5633 5634 5635 5636 5637 5639 5640 5642 5644 5646 5648 5650 5652 5654 5657 5659 5662 5666 5670 5673 5677 5681 5685 5688
5612 5612 5611 5612 5612 5612 5613 5613 5613 5613 5614 5614 5614 5615 5615 5616 5617 5618 5619 5620 5621 5622 5623 5625 5626 5627 5629 5631 5633 5634 5636 5639 5641 5643 5646 5649 5652 5656 5659 5663 5667 5671 5675
5600 5599 5599 5599 5599 5599 5600 5600 5600 5600 5600 5601 5601 5601 5602 5603 5604 5604 5605 5606 5607 5608 5609 5611 5612 5613 5615 5617 5618 5620 5623 5625 5627 5630 5632 5635 5638 5641 5645 5648 5652 5656 5661
5587 5587 5587 5586 5586 5586 5586 5587 5587 5587 5587 5587 5587 5588 5588 5589 5590 5590 5591 5592 5593 5594 5595 5596 5597 5599 5600 5602 5604 5606 5608 5611 5613 5616 5618 5621 5624 5627 5630 5633 5637 5641 5645
5576 5575 5574 5574 5574 5573 5573 5573 5573 5574 5573 5573 5574 5574 5575 5575 5576 5576 5577 5578 5579 5580 5581 5581 5582 5584 5585 5587 5589 5591 5594 5596 5599 5601 5604 5606 5609 5612 5615 5618 5621 5625 5630
5564 5563 5562 5561 5561 5561 5560 5560 5560 5560 5559 5559 5559 5560 5560 5560 5561 5562 5563 5563 5564 5565 5566 5566 5567 5568 5570 5572 5574 5576 5579 5581 5584 5586 5589 5591 5594 5597 5600 5602 5606 5610 5614
5553 5551 5550 5549 5549 5548 5547 5547 5546 5546 5546 5545 5545 5545 5546 5546 5546 5547 5548 5548 5549 5550 5551 5551 5552 5553 5554 5556 5558 5561 5563 5566 5568 5571 5574 5576 5578 5581 5584 5586 5590 5594 5598
5542 5541 5539 5538 5537 5536 5535 5534 5533 5533 5532 5531 5531 5531 5531 5531 5532 5532 5533 5533 5534 5535 5535 5535 5536 5537 5539 5540 5542 5545 5547 5550 5552 5555 5557 5560 5562 5565 5567 5570 5574 5577 5581
5531 5530 5528 5527 5525 5524 5523 5521 5520 5520 5519 5518 5518 5517 5517 5517 5517 5517 5518 5518 5519 5519 5520 5520 5521 5521 5523 5524 5526 5528 5531 5533 5536 5538 5541 5543 5546 5549 5551 5554 5558 5561 5565
5521 5519 5517 5516 5514 5513 5511 5510 5508 5507 5506 5506 5505 5504 5504 5503 5503 5503 5503 5503 5503 5504 5504 5505 5505 5506 5507 5508 5510 5512 5514 5517 5519 5522 5524 5527 5529 5532 5534 5538 5541 5545 5549
5510 5508 5506 5505 5503 5502 5500 5498 5497 5496 5494 5493 5492 5491 5490 5489 5489 5488 5488 5488 5488 5488 5488 5489 5489 5490 5491 5492 5494 5496 5498 5501 5503 5506 5508 5511 5513 5516 5518 5521 5525 5528 5533
5499 5497 5496 5494 5492 5491 5489 5488 5486 5485 5483 5482 5480 5478 5477 5476 5475 5474 5474 5473 5473 5473 5473 5474 5474 5475 5476 5477 5479 5480 5482 5485 5488 5490 5493 5495 5497 5500 5503 5506 5509 5513 5517
5489 5487 5485 5483 5481 5480 5478 5477 5475 5474 5472 5470 5468 5467 5465 5464 5462 5461 5461 5460 5459 5459 5459 5459 5459 5460 5461 5462 5463 5465 5467 5469 5472 5474 5477 5480 5482 5485 5488 5491 5494 5498 5502
5479 5477 5475 5473 5471 5469 5468 5466 5464 5463 5461 5459 5457 5455 5453 5452 5450 5449 5448 5447 5446 5445 5444 5444 5444 5445 5446 5447 5448 5449 5451 5454 5456 5459 5462 5464 5467 5470 5473 5476 5480 5484 5487
5469 5467 5465 5462 5460 5458 5457 5455 5453 5452 5450 5448 5446 5444 5442 5440 5438 5436 5435 5433 5432 5431 5431 5430 5430 5431 5431 5432 5433 5434 5436 5439 5442 5444 5447 5449 5452 5454 5457 5460 5464 5469 5472
5459 5457 5454 5452 5450 5448 5446 5444 5443 5441 5439 5437 5435 5433 5430 5428 5426 5424 5422 5420 5419 5418 5417 5417 5417 5417 5417 5418 5419 5420 5422 5424 5427 5429 5432 5434 5436 5439 5442 5445 5449 5453 5457
5450 5447 5445 5442 5440 5437 5436 5434 5432 5430 5429 5427 5424 5422 5419 5417 5414 5412 5410 5408 5406 5405 5404 5403 5403 5403 5403 5404 5405 5406 5408 5410 5412 5415 5417 5420 5422 5425 5428 5431 5434 5438 5442
5441 5438 5435 5433 5430 5428 5426 5424 5422 5420 5418 5416 5414 5411 5408 5405 5403 5400 5398 5396 5394 5392 5391 5390 5390 5390 5390 5391 5392 5393 5394 5396 5398 5400 5403 5405 5407 5410 5413 5416 5420 5423 5427
5432 5429 5426 5423 5421 5418 5416 5414 5411 5409 5407 5405 5403 5400 5397 5394 5391 5389 5386 5384 5382 5380 5379 5377 5377 5377 5377 5378 5379 5380 5381 5382 5384 5386 5388 5391 5393 5396 5399 5402 5405 5408 5412
5423 5420 5417 5414 5411 5409 5406 5404 5401 5399 5397 5394 5392 5389 5386 5383 5380 5378 5375 5373 5371 5368 5367 5366 5365 5365 5365 5365 5365 5366 5368 5369 5370 5372 5374 5376 5379 5382 5385 5387 5390 5394 5397
5415 5412 5409 5406 5402 5399 5397 5394 5391 5389 5386 5384 5381 5378 5375 5372 5369 5367 5365 5362 5359 5357 5355 5354 5353 5353 5353 5353 5353 5354 5355 5356 5357 5359 5361 5363 5365 5368 5371 5374 5376 5379 5383